Location: Blanton
(30.8302°N, 83.1188°W)
Time: 18:07:23
(UTC+00:00)

X-37B - Pass Details

Date: 03 December 2021
Orbit: 334 x 337 km, 45.0° (Epoch: 11 January)

Event Time Altitude Azimuth Distance (km) Brightness Sun altitude
Rises 23:29:50 0° 215° (SW) 2,086 5.2 -12.7°
Reaches altitude 10° 23:31:56 10° 205° (SSW) 1,254 3.8 -13.1°
Maximum altitude 23:34:30 32° 139° (SE) 595 1.3 -13.6°
Enters shadow 23:35:16 27° 105° (ESE) 680 1.3 -13.8°
